Location: Claflin County Park
(44.8478°N, 87.5507°W)
Time: 03:13:33
(UTC+00:00)

Lacrosse 5 rocket - Pass Details

Date: 10 December 2025
Orbit: 406 x 486 km, 57.0° (Epoch: 12 January)

Event Time Altitude Azimuth Distance (km) Brightness Sun altitude
Rises 00:03:14 0° 294° (WNW) 2,545 5.6 -19.4°
Reaches altitude 10° 00:06:26 10° 323° (NW) 1,650 4.0 -20.0°
Maximum altitude 00:08:13 13° 352° (N) 1,461 3.4 -20.3°
Enters shadow 00:08:20 13° 354° (N) 1,461 3.4 -20.3°
